Flag for United Kingdom Weather past 2 weeks in Stockport, England, United Kingdom

39 °F

Light rain. Overcast.

Feels Like: 36 °F
Forecast: 37 / 54 °F
Wind: 5 mph from Southeast

Location: Manchester Airport

Current Time: Dec 1, 2015 at 4:44:33 AM

Latest Report: Dec 1, 2015 at 3:50 AM

Visibility: N/A

Pressure: 30.07 "Hg

Humidity: 93%

Dew point: 37 °F

Location of StockportLocation

Historic Weather in Stockport — Graph


Stockport temperature yesterday

Maximum temperature yesterday: 54 °F (at 1:20 PM)
Minimum temperature yesterday: 37 °F (at 9:50 PM)
Average temperature yesterday: 44 °F

Past Weeks' High & Low Weather Summary

High57 °F (Nov 17, 3:50 PM)100% (Nov 16, 10:50 PM)30.24 "Hg (Nov 16, 10:50 PM)
Low28 °F (Nov 21, 7:50 PM)48% (Nov 21, 2:20 PM)29.27 "Hg (Nov 17, 2:20 PM)
Average44 °F85%29.80 "Hg
* Reported Nov 16 3:50 AM — Dec 1 3:20 AM, Stockport, Weather by CustomWeather, © 2015

Note: Actual official high and low records may vary slightly from our data, if they occured in-between our weather recording intervals... More about our weather records


Stockport weather history for previous 24 hours

Time TempWeatherWind HumidityBarometerVisibility
3:20 AM
Tue, Dec 1
39 °FLight rain. Partly cloudy.5 mph93%30.09 "HgN/A
2:50 AM37 °FSprinkles. Passing clouds.No wind100%30.07 "Hg6 mi
2:20 AM37 °FLight rain. Overcast.2 mph100%30.07 "Hg2 mi
1:50 AM37 °FFog.3 mph93%30.07 "Hg2 mi
1:20 AM37 °FFog.5 mph93%30.07 "Hg3 mi
12:50 AM37 °FClear.3 mph93%30.07 "Hg6 mi
11:50 PM
Mon, Nov 30
37 °FClear.3 mph100%30.07 "Hg6 mi
11:20 PM37 °FClear.3 mph93%30.04 "Hg10 mi
10:20 PM37 °FClear.5 mph93%30.04 "Hg10 mi
9:50 PM37 °FClear.No wind100%30.01 "Hg10 mi
9:20 PM39 °FClear.3 mph93%30.01 "Hg10 mi
8:50 PM39 °FPassing clouds.5 mph93%29.98 "HgN/A
8:20 PM39 °FPassing clouds.6 mph93%29.98 "HgN/A
7:50 PM41 °FPassing clouds.5 mph93%29.95 "HgN/A
7:20 PM41 °FPassing clouds.7 mph93%29.95 "HgN/A
6:50 PM41 °FPassing clouds.8 mph93%29.92 "HgN/A
6:20 PM43 °FPassing clouds.9 mph87%29.89 "HgN/A
5:50 PM43 °FPassing clouds.12 mph93%29.86 "HgN/A
5:20 PM45 °FPassing clouds.9 mph87%29.83 "HgN/A
4:50 PM46 °FPassing clouds.9 mph87%29.80 "HgN/A
4:20 PM46 °FScattered showers. Passing clouds.13 mph93%29.77 "HgN/A
3:50 PM50 °FLight rain. Broken clouds.16 mph94%29.74 "HgN/A
3:20 PM52 °FDrizzle. Broken clouds.23 mph94%29.71 "Hg1 mi
2:50 PM54 °FLight rain. Broken clouds.17 mph94%29.68 "Hg2 mi
2:20 PM54 °FBroken clouds.20 mph94%29.65 "HgN/A
1:50 PM54 °FLight rain. Broken clouds.22 mph94%29.65 "HgN/A
1:20 PM54 °FLight rain. Broken clouds.24 mph88%29.65 "HgN/A
12:50 PM52 °FLight rain. Broken clouds.21 mph94%29.65 "Hg4 mi
12:20 PM50 °FRain. Broken clouds.18 mph100%29.65 "Hg4 mi
11:50 AM50 °FRain. Broken clouds.18 mph100%29.68 "Hg4 mi
11:20 AM50 °FDrizzle. Broken clouds.16 mph94%29.68 "Hg3 mi
10:50 AM48 °FDrizzle. Partly sunny.15 mph100%29.71 "Hg3 mi
10:20 AM46 °FDrizzle. Partly sunny.15 mph100%29.71 "Hg3 mi
9:50 AM46 °FLight rain. Broken clouds.13 mph93%29.74 "Hg6 mi
9:20 AM45 °FLight rain. Broken clouds.12 mph100%29.77 "Hg6 mi
8:50 AM43 °FLight rain. Broken clouds.10 mph93%29.77 "Hg5 mi
8:20 AM41 °FDrizzle. Broken clouds.7 mph93%29.80 "Hg5 mi
6:50 AM41 °FLight rain. Passing clouds.10 mph93%29.86 "Hg6 mi
6:20 AM39 °FLight rain. Passing clouds.8 mph93%29.86 "Hg6 mi
5:50 AM41 °FLight rain. Mostly cloudy.8 mph87%29.89 "HgN/A
5:20 AM41 °FSprinkles. Passing clouds.9 mph81%29.92 "HgN/A
4:50 AM41 °FRain showers. Passing clouds.13 mph81%29.92 "HgN/A
4:20 AM41 °FClear.14 mph76%29.95 "Hg10 mi
Weather by CustomWeather, © 2015

See weather overviewHow to use our weather pages